THORAD AGENA D DEB, 42543

Orbit data source: Space-Track

THORAD AGENA D DEB, 42543 is space debris in SSO originally from a launch on Wed, 08 Apr 1970 UTC launched from the Air Force Western Test Range (AFWTR). Debris objects in space refer to the collection of defunct objects orbiting the Earth. Examples of debris include non-operational satellites, rocket bodies, and fragments generated from explosions, collisions, or faulty payload assembly.

Loading next visibility...
Identifier
42543, 1970-025SZ
Orbit
SSO
Country
Flag of USUS
Related business
Manufacturer
Unknown
Mission
Spacecraft
Bus & Motor
Unknown
Mass
Unknown
Launch date (UTC)
1970-04-08 (56 years ago)
Launch vehicle
Unknown
Launch site
Air Force Western Test Range (AFWTR)
Object type
Payload
Rocket body
Debris
Shape & HBR
Unknown shape, 0.1 m
Radar Cross Section
Small (<0.1 m²)

Expand to show TLE details & history
Last TLE update: 15 hours ago

TLE from 15 hours ago
0 THORAD AGENA D DEB
1 42543U 70025SZ  25352.34009192  .00000559  00000-0  12132-2 0  9997
2 42543  99.7904  10.5569 0179683  54.4754 307.2978 13.27865300584184
Epoch: 2025-12-18T08:09Z
TLE epoch observation values (Epoch: 2025-12-18T08:09:43.941Z)
Latitude
-0.00006°
Longitude
160.92682°
Altitude
1,077.109 km
Speed
7.353 km/s
True Right ascension
00h 42m 13s
True Declination
0° 00' 00"
Sunlit
Object was in daylight at epoch
Visualization orbit readout
Latitude
Unknown
Longitude
Unknown
Altitude
Unknown
Speed
Unknown
Apparent Right ascension
Unknown
Apparent Declination
Unknown
Sunlit
N/A
Visualization observer readout
Local Sidereal Time
21:34:03
Azimuth
Unknown
Elevation
Unknown
Doppler factor
Unknown
Orbital elements
Apogee altitude
1,287.467 km
Perigee altitude
1,016.854 km
Semi-major axis
7,530.297 km
Eccentricity
0.01797
Inclination
99.7904°
RAAN
10.5569°
Arg. of periapsis
54.4754°
True anomaly
305.63751°
Mean anomaly
307.2978°
Eccentric anomaly
306.4699°
Mean motion
3.32143 °/min
Orbital period
108.39 mins
BSTAR
0.0012132
Loading maneuver chart data...
Computing Atmospheric mass density...

Documentation

Showing up to 5 results
|